Year,Month,Day,Hour,Minute,Value (Times are PST for windgust in km/hr)
2015,08,29,00,00,6.40
2015,08,29,00,01,6.40
2015,08,29,00,02,6.40
2015,08,29,00,03,8.10
2015,08,29,00,04,8.10
2015,08,29,00,05,6.40
2015,08,29,00,06,8.10
2015,08,29,00,07,6.40
2015,08,29,00,08,4.80
2015,08,29,00,09,8.10
2015,08,29,00,10,8.10
2015,08,29,00,11,4.80
2015,08,29,00,12,6.40
2015,08,29,00,13,8.10
2015,08,29,00,14,6.40
2015,08,29,00,15,8.10
2015,08,29,00,16,6.40
2015,08,29,00,17,6.40
2015,08,29,00,18,11.30
2015,08,29,00,19,11.30
2015,08,29,00,20,8.10
2015,08,29,00,21,8.10
2015,08,29,00,22,9.60
2015,08,29,00,23,6.40
2015,08,29,00,24,8.10
2015,08,29,00,25,8.10
2015,08,29,00,26,9.60
2015,08,29,00,27,8.10
2015,08,29,00,28,8.10
2015,08,29,00,29,8.10
2015,08,29,00,30,8.10
2015,08,29,00,31,6.40
2015,08,29,00,32,8.10
2015,08,29,00,33,11.30
2015,08,29,00,34,8.10
2015,08,29,00,35,9.60
2015,08,29,00,36,8.10
2015,08,29,00,37,6.40
2015,08,29,00,38,8.10
2015,08,29,00,39,8.10
2015,08,29,00,40,8.10
2015,08,29,00,41,4.80
2015,08,29,00,42,4.80
2015,08,29,00,43,6.40
2015,08,29,00,44,6.40
2015,08,29,00,45,4.80
2015,08,29,00,46,6.40
2015,08,29,00,47,8.10
2015,08,29,00,48,4.80
2015,08,29,00,49,6.40
2015,08,29,00,50,4.80
2015,08,29,00,51,8.10
2015,08,29,00,52,9.60
2015,08,29,00,53,6.40
2015,08,29,00,54,3.20
2015,08,29,00,55,3.20
2015,08,29,00,56,3.20
2015,08,29,00,57,4.80
2015,08,29,00,58,6.40
2015,08,29,00,59,6.40
2015,08,29,01,00,4.80
2015,08,29,01,01,4.80
2015,08,29,01,02,4.80
2015,08,29,01,03,8.10
2015,08,29,01,04,4.80
2015,08,29,01,05,6.40
2015,08,29,01,06,8.10
2015,08,29,01,07,8.10
2015,08,29,01,08,6.40
2015,08,29,01,09,8.10
2015,08,29,01,10,6.40
2015,08,29,01,11,6.40
2015,08,29,01,12,6.40
2015,08,29,01,13,4.80
2015,08,29,01,14,9.60
2015,08,29,01,15,6.40
2015,08,29,01,16,14.50
2015,08,29,01,17,8.10
2015,08,29,01,18,9.60
2015,08,29,01,19,9.60
2015,08,29,01,20,8.10
2015,08,29,01,21,14.50
2015,08,29,01,22,9.60
2015,08,29,01,23,8.10
2015,08,29,01,24,9.60
2015,08,29,01,25,6.40
2015,08,29,01,26,8.10
2015,08,29,01,27,9.60
2015,08,29,01,28,8.10
2015,08,29,01,29,9.60
2015,08,29,01,30,6.40
2015,08,29,01,31,6.40
2015,08,29,01,32,8.10
2015,08,29,01,33,8.10
2015,08,29,01,34,4.80
2015,08,29,01,35,4.80
2015,08,29,01,36,4.80
2015,08,29,01,37,4.80
2015,08,29,01,38,4.80
2015,08,29,01,39,4.80
2015,08,29,01,40,4.80
2015,08,29,01,41,8.10
2015,08,29,01,42,11.30
2015,08,29,01,43,8.10
2015,08,29,01,44,9.60
2015,08,29,01,45,8.10
2015,08,29,01,46,4.80
2015,08,29,01,47,4.80
2015,08,29,01,48,4.80
2015,08,29,01,49,3.20
2015,08,29,01,50,4.80
2015,08,29,01,51,3.20
2015,08,29,01,52,6.40
2015,08,29,01,53,4.80
2015,08,29,01,54,3.20
2015,08,29,01,55,4.80
2015,08,29,01,56,4.80
2015,08,29,01,57,4.80
2015,08,29,01,58,4.80
2015,08,29,01,59,9.60
2015,08,29,02,00,8.10
2015,08,29,02,01,8.10
2015,08,29,02,02,6.40
2015,08,29,02,03,4.80
2015,08,29,02,04,8.10
2015,08,29,02,05,8.10
2015,08,29,02,06,11.30
2015,08,29,02,07,8.10
2015,08,29,02,08,6.40
2015,08,29,02,09,6.40
2015,08,29,02,10,6.40
2015,08,29,02,11,8.10
2015,08,29,02,12,8.10
2015,08,29,02,13,9.60
2015,08,29,02,14,4.80
2015,08,29,02,15,6.40
2015,08,29,02,16,4.80
2015,08,29,02,17,4.80
2015,08,29,02,18,8.10
2015,08,29,02,19,9.60
2015,08,29,02,20,8.10
2015,08,29,02,21,8.10
2015,08,29,02,22,8.10
2015,08,29,02,23,9.60
2015,08,29,02,24,8.10
2015,08,29,02,25,8.10
2015,08,29,02,26,11.30
2015,08,29,02,27,11.30
2015,08,29,02,28,9.60
2015,08,29,02,29,12.90
2015,08,29,02,30,6.40
2015,08,29,02,31,14.50
2015,08,29,02,32,14.50
2015,08,29,02,33,12.90
2015,08,29,02,34,14.50
2015,08,29,02,35,8.10
2015,08,29,02,36,12.90
2015,08,29,02,37,14.50
2015,08,29,02,38,14.50
2015,08,29,02,39,16.10
2015,08,29,02,40,12.90
2015,08,29,02,41,12.90
2015,08,29,02,42,16.10
2015,08,29,02,43,16.10
2015,08,29,02,44,9.60
2015,08,29,02,45,9.60
2015,08,29,02,46,9.60
2015,08,29,02,47,11.30
2015,08,29,02,48,14.50
2015,08,29,02,49,16.10
2015,08,29,02,50,11.30
2015,08,29,02,51,12.90
2015,08,29,02,52,14.50
2015,08,29,02,53,11.30
2015,08,29,02,54,14.50
2015,08,29,02,55,16.10
2015,08,29,02,56,11.30
2015,08,29,02,57,9.60
2015,08,29,02,58,8.10
2015,08,29,02,59,11.30
2015,08,29,03,00,11.30
2015,08,29,03,01,11.30
2015,08,29,03,02,9.60
2015,08,29,03,03,4.80
2015,08,29,03,04,8.10
2015,08,29,03,05,9.60
2015,08,29,03,06,8.10
2015,08,29,03,07,9.60
2015,08,29,03,08,6.40
2015,08,29,03,09,9.60
2015,08,29,03,10,9.60
2015,08,29,03,11,11.30
2015,08,29,03,12,9.60
2015,08,29,03,13,9.60
2015,08,29,03,14,8.10
2015,08,29,03,15,8.10
2015,08,29,03,16,8.10
2015,08,29,03,17,9.60
2015,08,29,03,18,11.30
2015,08,29,03,19,8.10
2015,08,29,03,20,9.60
2015,08,29,03,21,11.30
2015,08,29,03,22,16.10
2015,08,29,03,23,16.10
2015,08,29,03,24,11.30
2015,08,29,03,25,11.30
2015,08,29,03,26,9.60
2015,08,29,03,27,9.60
2015,08,29,03,28,12.90
2015,08,29,03,29,9.60
2015,08,29,03,30,9.60
2015,08,29,03,31,8.10
2015,08,29,03,32,11.30
2015,08,29,03,33,9.60
2015,08,29,03,34,9.60
2015,08,29,03,35,8.10
2015,08,29,03,36,6.40
2015,08,29,03,37,9.60
2015,08,29,03,38,11.30
2015,08,29,03,39,11.30
2015,08,29,03,40,9.60
2015,08,29,03,41,9.60
2015,08,29,03,42,9.60
2015,08,29,03,43,8.10
2015,08,29,03,44,8.10
2015,08,29,03,45,9.60
2015,08,29,03,46,4.80
2015,08,29,03,47,6.40
2015,08,29,03,48,9.60
2015,08,29,03,49,6.40
2015,08,29,03,50,6.40
2015,08,29,03,51,9.60
2015,08,29,03,52,11.30
2015,08,29,03,53,11.30
2015,08,29,03,54,9.60
2015,08,29,03,55,11.30
2015,08,29,03,56,6.40
2015,08,29,03,57,14.50
2015,08,29,03,58,16.10
2015,08,29,03,59,14.50
2015,08,29,04,00,9.60
2015,08,29,04,01,8.10
2015,08,29,04,02,8.10
2015,08,29,04,03,9.60
2015,08,29,04,04,11.30
2015,08,29,04,05,12.90
2015,08,29,04,06,14.50
2015,08,29,04,07,16.10
2015,08,29,04,08,11.30
2015,08,29,04,09,9.60
2015,08,29,04,10,9.60
2015,08,29,04,11,9.60
2015,08,29,04,12,9.60
2015,08,29,04,13,8.10
2015,08,29,04,14,11.30
2015,08,29,04,15,11.30
2015,08,29,04,16,9.60
2015,08,29,04,17,11.30
2015,08,29,04,18,11.30
2015,08,29,04,19,8.10
2015,08,29,04,20,4.80
2015,08,29,04,21,8.10
2015,08,29,04,22,8.10
2015,08,29,04,23,6.40
2015,08,29,04,24,4.80
2015,08,29,04,25,14.50
2015,08,29,04,26,11.30
2015,08,29,04,27,8.10
2015,08,29,04,28,11.30
2015,08,29,04,29,8.10
2015,08,29,04,30,8.10
2015,08,29,04,31,6.40
2015,08,29,04,32,9.60
2015,08,29,04,33,8.10
2015,08,29,04,34,9.60
2015,08,29,04,35,14.50
2015,08,29,04,36,14.50
2015,08,29,04,37,11.30
2015,08,29,04,38,9.60
2015,08,29,04,39,6.40
2015,08,29,04,40,11.30
2015,08,29,04,41,8.10
2015,08,29,04,42,14.50
2015,08,29,04,43,16.10
2015,08,29,04,44,9.60
2015,08,29,04,45,6.40
2015,08,29,04,46,11.30
2015,08,29,04,47,11.30
2015,08,29,04,48,8.10
2015,08,29,04,49,14.50
2015,08,29,04,50,11.30
2015,08,29,04,51,11.30
2015,08,29,04,52,4.80
2015,08,29,04,53,8.10
2015,08,29,04,54,9.60
2015,08,29,04,55,4.80
2015,08,29,04,56,9.60
2015,08,29,04,57,6.40
2015,08,29,04,58,9.60
2015,08,29,04,59,16.10
2015,08,29,05,00,9.60
2015,08,29,05,01,14.50
2015,08,29,05,02,11.30
2015,08,29,05,03,4.80
2015,08,29,05,04,6.40
2015,08,29,05,05,8.10
2015,08,29,05,06,16.10
2015,08,29,05,07,8.10
2015,08,29,05,08,9.60
2015,08,29,05,09,11.30
2015,08,29,05,10,17.70
2015,08,29,05,11,9.60
2015,08,29,05,12,6.40
2015,08,29,05,13,4.80
2015,08,29,05,14,4.80
2015,08,29,05,15,9.60
2015,08,29,05,16,14.50
2015,08,29,05,17,4.80
2015,08,29,05,18,8.10
2015,08,29,05,19,16.10
2015,08,29,05,20,9.60
2015,08,29,05,21,4.80
2015,08,29,05,22,3.20
2015,08,29,05,23,11.30
2015,08,29,05,24,16.10
2015,08,29,05,25,6.40
2015,08,29,05,26,4.80
2015,08,29,05,27,6.40
2015,08,29,05,28,8.10
2015,08,29,05,29,11.30
2015,08,29,05,30,17.70
2015,08,29,05,31,8.10
2015,08,29,05,32,6.40
2015,08,29,05,33,8.10
2015,08,29,05,34,9.60
2015,08,29,05,35,16.10
2015,08,29,05,36,20.90
2015,08,29,05,37,20.90
2015,08,29,05,38,24.20
2015,08,29,05,39,25.70
2015,08,29,05,40,19.30
2015,08,29,05,41,20.90
2015,08,29,05,42,17.70
2015,08,29,05,43,27.40
2015,08,29,05,44,16.10
2015,08,29,05,45,17.70
2015,08,29,05,46,9.60
2015,08,29,05,47,17.70
2015,08,29,05,48,20.90
2015,08,29,05,49,17.70
2015,08,29,05,50,16.10
2015,08,29,05,51,9.60
2015,08,29,05,52,17.70
2015,08,29,05,53,14.50
2015,08,29,05,54,11.30
2015,08,29,05,55,16.10
2015,08,29,05,56,6.40
2015,08,29,05,57,4.80
2015,08,29,05,58,6.40
2015,08,29,05,59,6.40
2015,08,29,06,00,4.80
2015,08,29,06,01,4.80
2015,08,29,06,02,3.20
2015,08,29,06,03,1.60
2015,08,29,06,04,3.20
2015,08,29,06,05,3.20
2015,08,29,06,06,4.80
2015,08,29,06,07,4.80
2015,08,29,06,08,3.20
2015,08,29,06,09,4.80
2015,08,29,06,10,4.80
2015,08,29,06,11,3.20
2015,08,29,06,12,6.40
2015,08,29,06,13,9.60
2015,08,29,06,14,8.10
2015,08,29,06,15,9.60
2015,08,29,06,16,11.30
2015,08,29,06,17,8.10
2015,08,29,06,18,8.10
2015,08,29,06,19,8.10
2015,08,29,06,20,8.10
2015,08,29,06,21,4.80
2015,08,29,06,22,4.80
2015,08,29,06,23,4.80
2015,08,29,06,24,9.60
2015,08,29,06,25,8.10
2015,08,29,06,26,8.10
2015,08,29,06,27,11.30
2015,08,29,06,28,9.60
2015,08,29,06,29,8.10
2015,08,29,06,30,4.80
2015,08,29,06,31,9.60
2015,08,29,06,32,6.40
2015,08,29,06,33,9.60
2015,08,29,06,34,11.30
2015,08,29,06,35,9.60
2015,08,29,06,36,9.60
2015,08,29,06,37,6.40
2015,08,29,06,38,8.10
2015,08,29,06,39,6.40
2015,08,29,06,40,11.30
2015,08,29,06,41,14.50
2015,08,29,06,42,8.10
2015,08,29,06,43,11.30
2015,08,29,06,44,9.60
2015,08,29,06,45,9.60
2015,08,29,06,46,3.20
2015,08,29,06,47,8.10
2015,08,29,06,48,3.20
2015,08,29,06,49,8.10
2015,08,29,06,50,8.10
2015,08,29,06,51,6.40
2015,08,29,06,52,9.60
2015,08,29,06,53,11.30
2015,08,29,06,54,11.30
2015,08,29,06,55,8.10
2015,08,29,06,56,4.80
2015,08,29,06,57,9.60
2015,08,29,06,58,9.60
2015,08,29,06,59,6.40
2015,08,29,07,00,4.80
2015,08,29,07,01,4.80
2015,08,29,07,02,9.60
2015,08,29,07,03,14.50
2015,08,29,07,04,9.60
2015,08,29,07,05,8.10
2015,08,29,07,06,8.10
2015,08,29,07,07,14.50
2015,08,29,07,08,6.40
2015,08,29,07,09,8.10
2015,08,29,07,10,11.30
2015,08,29,07,11,11.30
2015,08,29,07,12,9.60
2015,08,29,07,13,8.10
2015,08,29,07,14,12.90
2015,08,29,07,15,9.60
2015,08,29,07,16,11.30
2015,08,29,07,17,11.30
2015,08,29,07,18,8.10
2015,08,29,07,19,9.60
2015,08,29,07,20,9.60
2015,08,29,07,21,9.60
2015,08,29,07,22,8.10
2015,08,29,07,23,11.30
2015,08,29,07,24,9.60
2015,08,29,07,25,11.30
2015,08,29,07,26,9.60
2015,08,29,07,27,14.50
2015,08,29,07,28,14.50
2015,08,29,07,29,12.90
2015,08,29,07,30,14.50
2015,08,29,07,31,8.10
2015,08,29,07,32,14.50
2015,08,29,07,33,9.60
2015,08,29,07,34,9.60
2015,08,29,07,35,9.60
2015,08,29,07,36,8.10
2015,08,29,07,37,4.80
2015,08,29,07,38,8.10
2015,08,29,07,39,8.10
2015,08,29,07,40,8.10
2015,08,29,07,41,9.60
2015,08,29,07,42,8.10
2015,08,29,07,43,8.10
2015,08,29,07,44,4.80
2015,08,29,07,45,6.40
2015,08,29,07,46,8.10
2015,08,29,07,47,6.40
2015,08,29,07,48,4.80
2015,08,29,07,49,9.60
2015,08,29,07,50,8.10
2015,08,29,07,51,8.10
2015,08,29,07,52,14.50
2015,08,29,07,53,16.10
2015,08,29,07,54,3.20
2015,08,29,07,55,1.60
2015,08,29,07,56,3.20
2015,08,29,07,57,4.80
2015,08,29,07,58,6.40
2015,08,29,07,59,4.80
2015,08,29,08,00,8.10
2015,08,29,08,01,4.80
2015,08,29,08,02,6.40
2015,08,29,08,03,9.60
2015,08,29,08,04,4.80
2015,08,29,08,05,3.20
2015,08,29,08,06,3.20
2015,08,29,08,07,4.80
2015,08,29,08,08,6.40
2015,08,29,08,09,8.10
2015,08,29,08,10,3.20
2015,08,29,08,11,3.20
2015,08,29,08,12,3.20
2015,08,29,08,13,6.40
2015,08,29,08,14,8.10
2015,08,29,08,15,8.10
2015,08,29,08,16,6.40
2015,08,29,08,17,3.20
2015,08,29,08,18,3.20
2015,08,29,08,19,4.80
2015,08,29,08,20,4.80
2015,08,29,08,21,4.80
2015,08,29,08,22,1.60
2015,08,29,08,23,6.40
2015,08,29,08,24,8.10
2015,08,29,08,25,6.40
2015,08,29,08,26,4.80
2015,08,29,08,27,9.60
2015,08,29,08,28,8.10
2015,08,29,08,29,3.20
2015,08,29,08,30,11.30
2015,08,29,08,31,8.10
2015,08,29,08,32,3.20
2015,08,29,08,33,11.30
2015,08,29,08,34,8.10
2015,08,29,08,35,9.60
2015,08,29,08,36,8.10
2015,08,29,08,37,4.80
2015,08,29,08,38,9.60
2015,08,29,08,39,6.40
2015,08,29,08,40,4.80
2015,08,29,08,41,11.30
2015,08,29,08,42,6.40
2015,08,29,08,43,8.10
2015,08,29,08,44,4.80
2015,08,29,08,45,6.40
2015,08,29,08,46,4.80
2015,08,29,08,47,4.80
2015,08,29,08,48,4.80
2015,08,29,08,49,9.60
2015,08,29,08,50,12.90
2015,08,29,08,51,6.40
2015,08,29,08,52,6.40
2015,08,29,08,53,6.40
2015,08,29,08,54,8.10
2015,08,29,08,55,6.40
2015,08,29,08,56,3.20
2015,08,29,08,57,6.40
2015,08,29,08,58,14.50
2015,08,29,08,59,6.40
2015,08,29,09,00,4.80
2015,08,29,09,01,8.10
2015,08,29,09,02,6.40
2015,08,29,09,03,4.80
2015,08,29,09,04,6.40
2015,08,29,09,05,8.10
2015,08,29,09,06,8.10
2015,08,29,09,07,4.80
2015,08,29,09,08,9.60
2015,08,29,09,09,12.90
2015,08,29,09,10,11.30
2015,08,29,09,11,4.80
2015,08,29,09,12,8.10
2015,08,29,09,13,9.60
2015,08,29,09,14,8.10
2015,08,29,09,15,6.40
2015,08,29,09,16,9.60
2015,08,29,09,17,11.30
2015,08,29,09,18,14.50
2015,08,29,09,19,8.10
2015,08,29,09,20,9.60
2015,08,29,09,21,9.60
2015,08,29,09,22,4.80
2015,08,29,09,23,8.10
2015,08,29,09,24,8.10
2015,08,29,09,25,9.60
2015,08,29,09,26,11.30
2015,08,29,09,27,11.30
2015,08,29,09,28,6.40
2015,08,29,09,29,6.40
2015,08,29,09,30,9.60
2015,08,29,09,31,9.60
2015,08,29,09,32,12.90
2015,08,29,09,33,17.70
2015,08,29,09,34,9.60
2015,08,29,09,35,8.10
2015,08,29,09,36,6.40
2015,08,29,09,37,9.60
2015,08,29,09,38,16.10
2015,08,29,09,39,14.50
2015,08,29,09,40,8.10
2015,08,29,09,41,8.10
2015,08,29,09,42,17.70
2015,08,29,09,43,16.10
2015,08,29,09,44,14.50
2015,08,29,09,45,12.90
2015,08,29,09,46,11.30
2015,08,29,09,47,17.70
2015,08,29,09,48,14.50
2015,08,29,09,49,8.10
2015,08,29,09,50,6.40
2015,08,29,09,51,14.50
2015,08,29,09,52,12.90
2015,08,29,09,53,20.90
2015,08,29,09,54,22.50
2015,08,29,09,55,17.70
2015,08,29,09,56,20.90
2015,08,29,09,57,9.60
2015,08,29,09,58,11.30
2015,08,29,09,59,14.50
2015,08,29,10,00,19.30
2015,08,29,10,01,16.10
2015,08,29,10,02,6.40
2015,08,29,10,03,6.40
2015,08,29,10,04,14.50
2015,08,29,10,05,20.90
2015,08,29,10,06,19.30
2015,08,29,10,07,17.70
2015,08,29,10,08,16.10
2015,08,29,10,09,9.60
2015,08,29,10,10,8.10
2015,08,29,10,11,6.40
2015,08,29,10,12,8.10
2015,08,29,10,13,3.20
2015,08,29,10,14,4.80
2015,08,29,10,15,3.20
2015,08,29,10,16,1.60
2015,08,29,10,18,4.80
2015,08,29,10,19,6.40
2015,08,29,10,20,6.40
2015,08,29,10,21,9.60
2015,08,29,10,22,8.10
2015,08,29,10,23,3.20
2015,08,29,10,24,1.60
2015,08,29,10,25,4.80
2015,08,29,10,26,3.20
2015,08,29,10,27,8.10
2015,08,29,10,28,6.40
2015,08,29,10,29,3.20
2015,08,29,10,30,6.40
2015,08,29,10,31,4.80
2015,08,29,10,32,8.10
2015,08,29,10,33,14.50
2015,08,29,10,34,9.60
2015,08,29,10,35,6.40
2015,08,29,10,36,4.80
2015,08,29,10,37,3.20
2015,08,29,10,38,3.20
2015,08,29,10,39,6.40
2015,08,29,10,40,12.90
2015,08,29,10,41,19.30
2015,08,29,10,42,8.10
2015,08,29,10,43,9.60
2015,08,29,10,44,4.80
2015,08,29,10,45,8.10
2015,08,29,10,46,8.10
2015,08,29,10,47,9.60
2015,08,29,10,48,4.80
2015,08,29,10,49,8.10
2015,08,29,10,50,9.60
2015,08,29,10,51,6.40
2015,08,29,10,52,9.60
2015,08,29,10,53,17.70
2015,08,29,10,54,16.10
2015,08,29,10,55,4.80
2015,08,29,10,56,9.60
2015,08,29,10,57,6.40
2015,08,29,10,58,22.50
2015,08,29,10,59,17.70
2015,08,29,11,00,9.60
2015,08,29,11,01,19.30
2015,08,29,11,02,8.10
2015,08,29,11,03,27.40
2015,08,29,11,04,25.70
2015,08,29,11,05,19.30
2015,08,29,11,06,17.70
2015,08,29,11,07,25.70
2015,08,29,11,08,16.10
2015,08,29,11,09,24.20
2015,08,29,11,10,17.70
2015,08,29,11,11,19.30
2015,08,29,11,12,22.50
2015,08,29,11,13,24.20
2015,08,29,11,14,20.90
2015,08,29,11,15,19.30
2015,08,29,11,16,19.30
2015,08,29,11,17,16.10
2015,08,29,11,18,14.50
2015,08,29,11,19,24.20
2015,08,29,11,20,16.10
2015,08,29,11,21,20.90
2015,08,29,11,22,17.70
2015,08,29,11,23,27.40
2015,08,29,11,24,19.30
2015,08,29,11,25,16.10
2015,08,29,11,26,19.30
2015,08,29,11,27,17.70
2015,08,29,11,28,6.40
2015,08,29,11,29,19.30
2015,08,29,11,30,9.60
2015,08,29,11,31,16.10
2015,08,29,11,32,20.90
2015,08,29,11,33,6.40
2015,08,29,11,34,17.70
2015,08,29,11,35,8.10
2015,08,29,11,36,8.10
2015,08,29,11,37,17.70
2015,08,29,11,38,11.30
2015,08,29,11,39,8.10
2015,08,29,11,40,16.10
2015,08,29,11,41,9.60
2015,08,29,11,42,17.70
2015,08,29,11,43,20.90
2015,08,29,11,44,8.10
2015,08,29,11,45,17.70
2015,08,29,11,46,11.30
2015,08,29,11,47,16.10
2015,08,29,11,48,19.30
2015,08,29,11,49,14.50
2015,08,29,11,50,6.40
2015,08,29,11,51,6.40
2015,08,29,11,52,4.80
2015,08,29,11,53,8.10
2015,08,29,11,54,9.60
2015,08,29,11,55,8.10
2015,08,29,11,56,8.10
2015,08,29,11,57,4.80
2015,08,29,11,58,3.20
2015,08,29,11,59,4.80
2015,08,29,12,00,6.40
2015,08,29,12,01,4.80
2015,08,29,12,02,11.30
2015,08,29,12,03,11.30
2015,08,29,12,04,14.50
2015,08,29,12,05,17.70
2015,08,29,12,06,16.10
2015,08,29,12,07,9.60
2015,08,29,12,08,4.80
2015,08,29,12,09,14.50
2015,08,29,12,10,17.70
2015,08,29,12,11,9.60
2015,08,29,12,12,11.30
2015,08,29,12,13,32.20
2015,08,29,12,14,25.70
2015,08,29,12,15,16.10
2015,08,29,12,16,17.70
2015,08,29,12,17,19.30
2015,08,29,12,18,29.00
2015,08,29,12,19,25.70
2015,08,29,12,20,24.20
2015,08,29,12,21,22.50
2015,08,29,12,22,20.90
2015,08,29,12,23,22.50
2015,08,29,12,24,32.20
2015,08,29,12,25,22.50
2015,08,29,12,26,22.50
2015,08,29,12,27,19.30
2015,08,29,12,28,25.70
2015,08,29,12,29,25.70
2015,08,29,12,30,24.20
2015,08,29,12,31,19.30
2015,08,29,12,32,19.30
2015,08,29,12,33,16.10
2015,08,29,12,34,11.30
2015,08,29,12,35,9.60
2015,08,29,12,36,11.30
2015,08,29,12,37,22.50
2015,08,29,12,38,25.70
2015,08,29,12,39,17.70
2015,08,29,12,40,29.00
2015,08,29,12,41,33.80
2015,08,29,12,42,24.20
2015,08,29,12,43,30.60
2015,08,29,12,44,29.00
2015,08,29,12,45,25.70
2015,08,29,12,46,20.90
2015,08,29,12,47,24.20
2015,08,29,12,48,12.90
2015,08,29,12,49,14.50
2015,08,29,12,50,11.30
2015,08,29,12,51,16.10
2015,08,29,12,52,6.40
2015,08,29,12,53,11.30
2015,08,29,12,54,9.60
2015,08,29,12,55,6.40
2015,08,29,12,56,11.30
2015,08,29,12,57,16.10
2015,08,29,12,58,17.70
2015,08,29,12,59,11.30
2015,08,29,13,00,8.10
2015,08,29,13,01,11.30
2015,08,29,13,02,25.70
2015,08,29,13,03,11.30
2015,08,29,13,04,20.90
2015,08,29,13,05,11.30
2015,08,29,13,06,6.40
2015,08,29,13,07,8.10
2015,08,29,13,08,9.60
2015,08,29,13,09,4.80
2015,08,29,13,10,9.60
2015,08,29,13,11,11.30
2015,08,29,13,12,8.10
2015,08,29,13,13,8.10
2015,08,29,13,14,6.40
2015,08,29,13,15,9.60
2015,08,29,13,16,6.40
2015,08,29,13,17,11.30
2015,08,29,13,18,16.10
2015,08,29,13,19,20.90
2015,08,29,13,20,19.30
2015,08,29,13,21,8.10
2015,08,29,13,22,9.60
2015,08,29,13,23,6.40
2015,08,29,13,24,9.60
2015,08,29,13,25,17.70
2015,08,29,13,26,14.50
2015,08,29,13,27,12.90
2015,08,29,13,28,11.30
2015,08,29,13,29,9.60
2015,08,29,13,30,24.20
2015,08,29,13,31,12.90
2015,08,29,13,32,20.90
2015,08,29,13,33,14.50
2015,08,29,13,34,25.70
2015,08,29,13,35,20.90
2015,08,29,13,36,12.90
2015,08,29,13,37,14.50
2015,08,29,13,38,22.50
2015,08,29,13,39,30.60
2015,08,29,13,40,29.00
2015,08,29,13,41,17.70
2015,08,29,13,42,29.00
2015,08,29,13,43,32.20
2015,08,29,13,44,49.90
2015,08,29,13,45,35.40
2015,08,29,13,46,27.40
2015,08,29,13,47,24.20
2015,08,29,13,48,35.40
2015,08,29,13,49,30.60
2015,08,29,13,50,20.90
2015,08,29,13,51,30.60
2015,08,29,13,52,32.20
2015,08,29,13,53,40.20
2015,08,29,13,54,35.40
2015,08,29,13,55,32.20
2015,08,29,13,56,24.20
2015,08,29,13,57,38.60
2015,08,29,13,58,51.50
2015,08,29,13,59,46.70
2015,08,29,14,00,56.30
2015,08,29,14,01,32.20
2015,08,29,14,02,41.80
2015,08,29,14,03,45.10
2015,08,29,14,04,54.70
2015,08,29,14,05,51.50
2015,08,29,14,06,51.50
2015,08,29,14,07,49.90
2015,08,29,14,08,45.10
2015,08,29,14,09,48.30
2015,08,29,14,10,38.60
2015,08,29,14,11,41.80
2015,08,29,14,12,54.70
2015,08,29,14,13,45.10
2015,08,29,14,14,38.60
2015,08,29,14,15,49.90
2015,08,29,14,16,41.80
2015,08,29,14,17,27.40
2015,08,29,14,18,53.10
2015,08,29,14,19,40.20
2015,08,29,14,20,57.90
2015,08,29,14,21,53.10
2015,08,29,14,22,41.80
2015,08,29,14,23,29.00
2015,08,29,14,24,56.30
2015,08,29,14,25,32.20
2015,08,29,14,26,40.20
2015,08,29,14,27,40.20
2015,08,29,14,28,46.70
2015,08,29,14,29,37.00
2015,08,29,14,30,40.20
2015,08,29,14,31,40.20
2015,08,29,14,32,37.00
2015,08,29,14,33,38.60
2015,08,29,14,34,35.40
2015,08,29,14,35,38.60
2015,08,29,14,36,53.10
2015,08,29,14,37,45.10
2015,08,29,14,38,45.10
2015,08,29,14,39,33.80
2015,08,29,14,40,29.00
2015,08,29,14,41,38.60
2015,08,29,14,42,45.10
2015,08,29,14,43,40.20
2015,08,29,14,44,40.20
2015,08,29,14,45,35.40
2015,08,29,14,46,54.70
2015,08,29,14,47,41.80
2015,08,29,14,48,27.40
2015,08,29,14,49,45.10
2015,08,29,14,50,53.10
2015,08,29,14,51,41.80
2015,08,29,14,52,37.00
2015,08,29,14,53,40.20
2015,08,29,14,54,45.10
2015,08,29,14,55,43.50
2015,08,29,14,56,33.80
2015,08,29,14,57,38.60
2015,08,29,14,58,37.00
2015,08,29,14,59,30.60
2015,08,29,15,00,41.80
2015,08,29,15,01,35.40
2015,08,29,15,02,25.70
2015,08,29,15,03,25.70
2015,08,29,15,04,30.60
2015,08,29,15,05,35.40
2015,08,29,15,06,37.00
2015,08,29,15,07,38.60
2015,08,29,15,08,45.10
2015,08,29,15,09,37.00
2015,08,29,15,10,35.40
2015,08,29,15,11,30.60
2015,08,29,15,12,27.40
2015,08,29,15,13,20.90
2015,08,29,15,14,22.50
2015,08,29,15,15,38.60
2015,08,29,15,16,30.60
2015,08,29,15,17,33.80
2015,08,29,15,18,29.00
2015,08,29,15,19,22.50
2015,08,29,15,20,22.50
2015,08,29,15,21,17.70
2015,08,29,15,22,19.30
2015,08,29,15,23,32.20
2015,08,29,15,24,37.00
2015,08,29,15,25,22.50
2015,08,29,15,26,20.90
2015,08,29,15,27,20.90
2015,08,29,15,28,20.90
2015,08,29,15,29,29.00
2015,08,29,15,30,33.80
2015,08,29,15,31,32.20
2015,08,29,15,32,20.90
2015,08,29,15,33,20.90
2015,08,29,15,34,25.70
2015,08,29,15,35,27.40
2015,08,29,15,36,33.80
2015,08,29,15,37,29.00
2015,08,29,15,38,37.00
2015,08,29,15,39,29.00
2015,08,29,15,40,30.60
2015,08,29,15,41,24.20
2015,08,29,15,42,17.70
2015,08,29,15,43,25.70
2015,08,29,15,44,20.90
2015,08,29,15,45,29.00
2015,08,29,15,46,33.80
2015,08,29,15,47,32.20
2015,08,29,15,48,32.20
2015,08,29,15,49,24.20
2015,08,29,15,50,22.50
2015,08,29,15,51,17.70
2015,08,29,15,52,25.70
2015,08,29,15,53,16.10
2015,08,29,15,54,25.70
2015,08,29,15,55,22.50
2015,08,29,15,56,25.70
2015,08,29,15,57,22.50
2015,08,29,15,58,20.90
2015,08,29,15,59,12.90
2015,08,29,16,00,20.90
2015,08,29,16,01,22.50
2015,08,29,16,02,29.00
2015,08,29,16,03,24.20
2015,08,29,16,04,24.20
2015,08,29,16,05,27.40
2015,08,29,16,06,29.00
2015,08,29,16,07,22.50
2015,08,29,16,08,22.50
2015,08,29,16,09,22.50
2015,08,29,16,10,17.70
2015,08,29,16,11,32.20
2015,08,29,16,12,24.20
2015,08,29,16,13,25.70
2015,08,29,16,14,20.90
2015,08,29,16,15,14.50
2015,08,29,16,16,22.50
2015,08,29,16,17,11.30
2015,08,29,16,18,17.70
2015,08,29,16,19,17.70
2015,08,29,16,20,11.30
2015,08,29,16,21,9.60
2015,08,29,16,22,14.50
2015,08,29,16,23,11.30
2015,08,29,16,24,16.10
2015,08,29,16,25,19.30
2015,08,29,16,26,14.50
2015,08,29,16,27,19.30
2015,08,29,16,28,20.90
2015,08,29,16,29,19.30
2015,08,29,16,30,16.10
2015,08,29,16,31,16.10
2015,08,29,16,32,12.90
2015,08,29,16,33,11.30
2015,08,29,16,34,9.60
2015,08,29,16,35,8.10
2015,08,29,16,36,16.10
2015,08,29,16,37,12.90
2015,08,29,16,38,17.70
2015,08,29,16,39,17.70
2015,08,29,16,40,9.60
2015,08,29,16,41,11.30
2015,08,29,16,42,9.60
2015,08,29,16,43,17.70
2015,08,29,16,44,11.30
2015,08,29,16,45,11.30
2015,08,29,16,46,8.10
2015,08,29,16,47,9.60
2015,08,29,16,48,9.60
2015,08,29,16,49,9.60
2015,08,29,16,50,8.10
2015,08,29,16,51,9.60
2015,08,29,16,52,8.10
2015,08,29,16,53,8.10
2015,08,29,16,54,6.40
2015,08,29,16,55,4.80
2015,08,29,16,56,4.80
2015,08,29,16,57,8.10
2015,08,29,16,58,8.10
2015,08,29,16,59,6.40
2015,08,29,17,00,9.60
2015,08,29,17,01,6.40
2015,08,29,17,02,6.40
2015,08,29,17,03,4.80
2015,08,29,17,04,3.20
2015,08,29,17,05,1.60
2015,08,29,17,07,3.20
2015,08,29,17,08,4.80
2015,08,29,17,09,4.80
2015,08,29,17,10,4.80
2015,08,29,17,11,1.60
2015,08,29,17,12,3.20
2015,08,29,17,13,1.60
2015,08,29,17,14,3.20
2015,08,29,17,15,3.20
2015,08,29,17,16,3.20
2015,08,29,17,20,1.60
2015,08,29,17,21,1.60
2015,08,29,17,22,1.60
2015,08,29,17,23,4.80
2015,08,29,17,24,1.60
2015,08,29,17,26,3.20
2015,08,29,17,27,3.20
2015,08,29,17,28,3.20
2015,08,29,17,31,1.60
2015,08,29,17,32,4.80
2015,08,29,17,33,4.80
2015,08,29,17,34,6.40
2015,08,29,17,35,6.40
2015,08,29,17,36,6.40
2015,08,29,17,37,11.30
2015,08,29,17,38,9.60
2015,08,29,17,39,11.30
2015,08,29,17,40,16.10
2015,08,29,17,41,11.30
2015,08,29,17,42,14.50
2015,08,29,17,43,11.30
2015,08,29,17,44,11.30
2015,08,29,17,45,14.50
2015,08,29,17,46,9.60
2015,08,29,17,47,17.70
2015,08,29,17,48,16.10
2015,08,29,17,49,14.50
2015,08,29,17,50,16.10
2015,08,29,17,51,14.50
2015,08,29,17,52,20.90